[[{"header":{"parameterUnit":"m.s-1","parameterCategory":1,"la1":30.2991,"la2":30.254,"lo1":-89.0895,"lo2":-89.0444,"dy":0.0017,"dx":0.0017,"nx":28,"ny":28,"refTime":"2024-03-19T09:00:00:Z","depth":0,"parameterNumber":2,"parameterNumberName":"U-component_of_WINDS"},"data":[0,0,0,0,0,0,0,0,0,0,0,0,0,0,0,0,0,0,0,0,0,0,0,0,0,0,0,0,0,0,0,0,0,0,0,0,0,0,0,0,0,0,0,0,0,0,0,0,0,0,0,0,0,0,0,0,0,0,-3.6448,-3.6448,0,-3.6469,-3.647,-3.647,-3.6386,-3.6383,-3.6381,-3.6378,-3.6402,-3.6404,-3.6407,0,0,0,0,0,0,0,0,0,0,0,0,0,-3.6336,-3.6338,-3.6448,-3.6448,-3.6448,-3.6469,-3.647,-3.647,-3.6386,-3.6383,-3.638,-3.6377,-3.6401,-3.6404,-3.6408,0,0,0,0,0,0,0,0,0,0,0,0,0,-3.6374,-3.6339,-3.6448,-3.6409,-3.6406,-3.6469,-3.647,-3.647,-3.6387,-3.6383,-3.6379,-3.6376,-3.6399,-3.6404,-3.6408,-3.651,0,0,-3.6422,-3.6424,0,0,0,0,0,0,0,0,-3.6371,-3.6378,-3.6415,-3.6412,-3.6408,-3.6421,-3.6438,-3.6483,-3.6388,-3.6394,-3.6378,-3.6374,-3.6411,-3.6414,-3.6427,-3.6511,-3.6512,-3.6422,-3.6425,-3.6427,-3.6428,0,0,0,0,0,0,0,-3.6369,-3.6376,-3.6456,-3.6415,-3.6411,-3.6391,-3.6392,-3.6447,-3.6423,-3.6393,-3.6387,-3.6391,-3.6409,-3.6423,-3.6427,-3.6513,-3.6422,-3.6426,-3.6429,-3.643,-3.6683,-3.6687,0,0,0,0,0,0,-3.6371,-3.6375,-3.6456,-3.6457,-3.638,-3.6396,-3.6397,-3.6421,-3.6423,-3.6419,-3.6394,-3.6387,-3.6417,-3.6422,-3.6427,-3.6547,-3.6427,-3.6431,-3.6433,-3.6679,-3.6684,-3.6688,0,0,0,0,0,0,-3.6369,-3.6379,-3.6455,-3.6414,-3.6422,-3.6402,-3.6429,-3.6423,-3.6437,-3.6423,-3.6419,-3.6412,-3.6414,-3.6421,-3.649,-3.6547,-3.6433,-3.6437,-3.6674,-3.668,-3.6686,-3.6789,0,0,0,0,0,0,-3.6366,-3.6379,-3.6417,-3.6416,-3.6425,-3.6518,-3.6432,-3.6426,-3.6445,-3.6435,-3.6439,-3.6436,-3.6412,-3.6484,-3.6495,-3.6551,-3.644,-3.6669,-3.6677,-3.6684,-3.678,-3.6798,-3.6812,0,0,0,0,0,-3.6363,-3.6445,-3.642,-3.643,-3.6472,-3.6521,-3.6526,-3.6496,-3.6449,-3.6488,-3.6479,-3.6436,-3.6539,-3.6492,-3.6503,-3.6562,-3.6665,-3.6675,-3.6683,-3.6773,-3.6794,-3.6812,0,0,0,0,0,0,-3.6455,-3.6445,-3.6416,-3.6501,-3.6512,-3.6507,-3.6554,-3.6519,-3.6545,-3.6535,-3.6497,-3.6499,-3.6575,-3.6575,-3.6523,-3.6661,-3.6594,-3.6606,-3.6658,-3.6678,-3.6694,-3.6693,-3.6444,0,0,0,0,0,-3.6485,-3.6525,-3.6514,-3.659,-3.6597,-3.6575,-3.6595,-3.6571,-3.6582,-3.6586,-3.6582,-3.6595,-3.663,-3.6654,-3.6685,-3.6779,-3.6779,-3.6825,-3.6841,-3.6855,-3.6866,-3.6916,-3.6937,-3.6718,-3.6718,-3.6718,0,0,-3.6547,-3.6547,-3.6575,-3.6608,-3.6614,-3.6658,-3.658,-3.6628,-3.666,-3.6594,-3.6659,-3.6657,-3.6668,-3.6751,-3.6787,-3.6753,-3.6926,-3.6866,-3.6877,-3.6881,-3.6928,-3.6949,-3.6967,-3.6724,-3.6723,-3.6722,0,0,-3.6684,-3.6687,-3.6751,-3.6759,-3.6769,-3.6754,-3.6769,-3.6769,-3.6765,-3.683,-3.6782,-3.6819,-3.688,-3.689,-3.6903,-3.7044,-3.7006,-3.7056,-3.714,-3.719,-3.7207,-3.7222,-3.7274,-3.7292,-3.7066,-3.7067,-3.7067,0,-3.6761,-3.6823,-3.6788,-3.6841,-3.6857,-3.6799,-3.6864,-3.6873,-3.6893,-3.6907,-3.6868,-3.6944,-3.6947,-3.7032,-3.7066,-3.7079,-3.7096,-3.7055,-3.7208,-3.7222,-3.7236,-3.7284,-3.7304,-3.7073,-3.7072,-3.7071,-3.7071,0,-3.6918,-3.6962,-3.7012,-3.7033,-3.7055,-3.7114,-3.7089,-3.7115,-3.7089,-3.7078,-3.7146,-3.7148,-3.7179,-3.7197,-3.7172,-3.7278,-3.7257,-3.7214,-3.7146,-3.7263,-3.7308,-3.7327,-3.7081,-3.7079,-3.7077,-3.7076,0,0,-3.7113,-3.7114,-3.7134,-3.7143,-3.715,-3.7184,-3.7239,-3.727,-3.7294,-3.731,-3.7356,-3.7409,-3.737,-3.7385,-3.736,-3.7404,-3.7517,-3.7355,-3.7355,-3.7386,-3.7635,-3.7669,-3.7691,-3.7491,-3.7494,-3.7497,-3.7635,0,-3.7248,-3.7343,-3.7314,-3.741,-3.7451,-3.7396,-3.7445,-3.7455,-3.7446,-3.748,-3.747,-3.7509,-3.7453,-3.7462,-3.7503,-3.7495,-3.7566,-3.7484,-3.7535,-3.7537,-3.7535,-3.7714,-3.7749,-3.7879,-3.7652,-3.7655,-3.7657,0,-3.7418,-3.7441,-3.7541,-3.7542,-3.7558,-3.7603,-3.7628,-3.7661,-3.7671,-3.7662,-3.7679,-3.7646,-3.7701,-3.7633,-3.7709,-3.7654,-3.7673,-3.7672,-3.7676,-3.7681,-3.7605,-3.7724,-3.7919,-3.794,-3.7684,-3.7682,-3.768,0,-3.7552,-3.7607,-3.7675,-3.7684,-3.7687,-3.7719,-3.7722,-3.7729,-3.7749,-3.7772,-3.7784,-3.7813,-3.783,-3.7853,-3.7828,-3.7781,-3.7909,-3.7838,-3.7904,-3.7905,-3.7934,-3.7933,-3.8136,-3.7945,-3.7944,-3.7944,-3.7944,0,-3.7706,-3.777,-3.7735,-3.7777,-3.7847,-3.7813,-3.7884,-3.788,-3.7887,-3.7927,-3.7881,-3.792,-3.7885,-3.7921,-3.7902,-3.7969,-3.7976,-3.7971,-3.7965,-3.7976,-3.7977,-3.7988,-3.7979,-3.7949,-3.7948,-3.7947,-3.7946,0,-3.7868,-3.7847,-3.7917,-3.7914,-3.7914,-3.7966,-3.7964,-3.8002,-3.799,-3.8042,-3.8052,-3.8034,-3.8074,-3.8052,-3.8093,-3.808,-3.8167,-3.8149,-3.8164,-3.8159,-3.8226,-3.8221,-3.8445,-3.8473,-3.8263,-3.8265,-3.8267,0,-3.7968,-3.8016,-3.8018,-3.8041,-3.8047,-3.8086,-3.8106,-3.8074,-3.8098,-3.8113,-3.8151,-3.8187,-3.8214,-3.8281,-3.8271,-3.8303,-3.8285,-3.8362,-3.829,-3.8299,-3.8288,-3.8286,-3.8291,-3.8377,-3.8379,-3.8381,-3.8383,0,-3.8148,-3.8136,-3.8167,-3.8195,-3.8221,-3.8241,-3.8258,-3.828,-3.8248,-3.8277,-3.8318,-3.8339,-3.8381,-3.8418,-3.8445,-3.8447,-3.8411,-3.8405,-3.8422,-3.8434,-3.8441,-3.8439,-3.8204,-3.8401,-3.8399,-3.8398,-3.8397,-3.8396,-3.8283,-3.8323,-3.8331,-3.8368,-3.8377,-3.8394,-3.843,-3.8423,-3.8456,-3.8487,-3.8466,-3.8515,-3.8524,-3.8556,-3.8564,-3.8602,-3.8571,-3.8595,-3.8602,-3.8609,-3.8618,-3.8435,-3.8606,-3.8606,-3.8605,-3.8605,-3.8604,0,-3.8462,-3.8464,-3.8498,-3.8523,-3.8552,-3.8514,-3.8531,-3.8558,-3.86,-3.8612,-3.864,-3.8687,-3.8722,-3.8716,-3.8748,-3.8779,-3.8763,-3.8789,-3.8787,-3.8788,-3.8643,-3.8626,-3.8801,-3.8801,-3.8801,-3.8801,-3.8801,-3.8801,-3.8558,-3.8625,-3.8614,-3.8685,-3.8686,-3.8733,-3.8746,-3.8761,-3.8771,-3.8825,-3.8854,-3.8849,-3.8854,-3.8887,-3.8918,-3.8915,-3.8929,-3.8962,-3.8953,-3.8818,-3.8798,-3.878,-3.8763,-3.8965,-3.8965,-3.9095,-3.9096,-3.9097]},{"header":{"parameterUnit":"m.s-1","parameterCategory":1,"la1":30.2991,"la2":30.254,"lo1":-89.0895,"lo2":-89.0444,"dy":0.0017,"dx":0.0017,"nx":28,"ny":28,"refTime":"2024-03-19T09:00:00:Z","depth":0,"parameterNumber":3,"parameterNumberName":"V-component_of_WINDS"},"data":[0,0,0,0,0,0,0,0,0,0,0,0,0,0,0,0,0,0,0,0,0,0,0,0,0,0,0,0,0,0,0,0,0,0,0,0,0,0,0,0,0,0,0,0,0,0,0,0,0,0,0,0,0,0,0,0,0,0,-3.5602,-3.5602,0,-3.5629,-3.563,-3.563,-3.5575,-3.5573,-3.5571,-3.557,-3.5596,-3.5599,-3.5601,0,0,0,0,0,0,0,0,0,0,0,0,0,-3.5501,-3.5503,-3.5602,-3.5602,-3.5603,-3.5629,-3.563,-3.563,-3.5575,-3.5573,-3.5571,-3.5569,-3.5595,-3.5598,-3.5601,0,0,0,0,0,0,0,0,0,0,0,0,0,-3.5538,-3.5504,-3.5602,-3.5579,-3.5577,-3.5629,-3.563,-3.563,-3.5576,-3.5573,-3.557,-3.5568,-3.5595,-3.5598,-3.5602,-3.5677,0,0,-3.5612,-3.5614,0,0,0,0,0,0,0,0,-3.5536,-3.5542,-3.5582,-3.558,-3.5578,-3.5596,-3.5604,-3.5646,-3.5576,-3.5576,-3.557,-3.5566,-3.5598,-3.5601,-3.5612,-3.5679,-3.568,-3.5613,-3.5615,-3.5616,-3.5617,0,0,0,0,0,0,0,-3.5534,-3.554,-3.5613,-3.5582,-3.558,-3.5566,-3.5569,-3.5611,-3.5602,-3.5576,-3.5572,-3.5576,-3.5597,-3.5609,-3.5613,-3.568,-3.5613,-3.5616,-3.5618,-3.5619,-3.581,-3.5813,0,0,0,0,0,0,-3.5534,-3.5539,-3.5612,-3.5613,-3.555,-3.557,-3.5573,-3.5593,-3.5601,-3.56,-3.5578,-3.5573,-3.5604,-3.5608,-3.5613,-3.5703,-3.5616,-3.562,-3.5622,-3.5807,-3.581,-3.5814,0,0,0,0,0,0,-3.5532,-3.5541,-3.5611,-3.5575,-3.5583,-3.5575,-3.5598,-3.5595,-3.5607,-3.5603,-3.5601,-3.5593,-3.5602,-3.5608,-3.5662,-3.5703,-3.5621,-3.5625,-3.5803,-3.5808,-3.5812,-3.5883,0,0,0,0,0,0,-3.553,-3.5541,-3.557,-3.5576,-3.5585,-3.566,-3.56,-3.5597,-3.5614,-3.5607,-3.5616,-3.5615,-3.5601,-3.5657,-3.5665,-3.5706,-3.5627,-3.58,-3.5805,-3.5811,-3.5877,-3.5889,-3.5899,0,0,0,0,0,-3.5526,-3.5589,-3.5572,-3.5581,-3.5621,-3.5662,-3.5667,-3.565,-3.5617,-3.5646,-3.5643,-3.5615,-3.5697,-3.5663,-3.5672,-3.5715,-3.5797,-3.5804,-3.581,-3.5871,-3.5886,-3.5899,0,0,0,0,0,0,-3.5587,-3.5589,-3.557,-3.5637,-3.565,-3.5653,-3.5689,-3.5666,-3.5689,-3.5682,-3.5659,-3.5661,-3.572,-3.5722,-3.5684,-3.5788,-3.5741,-3.575,-3.5785,-3.5799,-3.581,-3.5809,-3.563,0,0,0,0,0,-3.5608,-3.5642,-3.5641,-3.57,-3.5707,-3.5697,-3.5714,-3.57,-3.5712,-3.5717,-3.5719,-3.5731,-3.576,-3.5779,-3.5805,-3.5876,-3.5877,-3.591,-3.5921,-3.5931,-3.5939,-3.5976,-3.5991,-3.5835,-3.5835,-3.5835,0,0,-3.5652,-3.5657,-3.568,-3.5712,-3.5721,-3.5755,-3.5702,-3.5741,-3.5767,-3.5723,-3.5774,-3.5776,-3.5788,-3.5851,-3.5878,-3.5855,-3.5982,-3.5939,-3.5947,-3.595,-3.5985,-3.6,-3.6013,-3.584,-3.5839,-3.5838,0,0,-3.5751,-3.5758,-3.5808,-3.5817,-3.5831,-3.5823,-3.5835,-3.5842,-3.5841,-3.5892,-3.586,-3.589,-3.594,-3.595,-3.5962,-3.6064,-3.6038,-3.6073,-3.6133,-3.617,-3.6182,-3.6193,-3.623,-3.6243,-3.6081,-3.6081,-3.6081,0,-3.5804,-3.5856,-3.5836,-3.5877,-3.5893,-3.5855,-3.5905,-3.5915,-3.5936,-3.5947,-3.592,-3.5982,-3.5988,-3.6053,-3.6077,-3.6088,-3.6101,-3.6072,-3.6182,-3.6192,-3.6202,-3.6237,-3.6251,-3.6085,-3.6085,-3.6084,-3.6084,0,-3.592,-3.5957,-3.5995,-3.6017,-3.6036,-3.6082,-3.6069,-3.609,-3.6074,-3.6069,-3.6122,-3.6127,-3.6154,-3.6168,-3.6152,-3.623,-3.6215,-3.6186,-3.6138,-3.6222,-3.6254,-3.6267,-3.6091,-3.609,-3.6088,-3.6087,0,0,-3.6058,-3.6069,-3.6084,-3.6093,-3.6105,-3.6133,-3.6176,-3.6203,-3.6222,-3.6237,-3.6273,-3.6316,-3.6289,-3.6302,-3.6287,-3.632,-3.64,-3.6286,-3.6286,-3.6307,-3.6487,-3.651,-3.6526,-3.6383,-3.6385,-3.6387,-3.6486,0,-3.6156,-3.6232,-3.6216,-3.629,-3.6323,-3.6288,-3.6325,-3.6337,-3.6333,-3.6361,-3.6356,-3.6388,-3.6349,-3.6357,-3.6387,-3.6384,-3.6436,-3.6377,-3.6416,-3.6418,-3.6415,-3.6543,-3.6567,-3.666,-3.6499,-3.6501,-3.6502,0,-3.6281,-3.6302,-3.638,-3.6387,-3.64,-3.6435,-3.6457,-3.6484,-3.6496,-3.6491,-3.6506,-3.6485,-3.6527,-3.6479,-3.6537,-3.6497,-3.6512,-3.6513,-3.6516,-3.652,-3.6466,-3.6551,-3.669,-3.6704,-3.6522,-3.652,-3.6519,0,-3.6375,-3.6422,-3.6475,-3.6484,-3.6493,-3.6519,-3.6523,-3.6532,-3.6549,-3.6569,-3.658,-3.6604,-3.6618,-3.6637,-3.6622,-3.6588,-3.6683,-3.6633,-3.668,-3.6681,-3.6703,-3.6702,-3.6847,-3.6711,-3.6711,-3.6711,-3.671,0,-3.6486,-3.6536,-3.6518,-3.655,-3.6604,-3.6584,-3.6638,-3.6638,-3.6647,-3.6678,-3.6648,-3.6679,-3.6657,-3.6686,-3.6674,-3.6725,-3.6731,-3.6728,-3.6725,-3.6731,-3.6732,-3.6741,-3.6735,-3.6714,-3.6714,-3.6713,-3.6712,0,-3.6601,-3.6591,-3.6646,-3.665,-3.6652,-3.6692,-3.6695,-3.6725,-3.6719,-3.6759,-3.6768,-3.6759,-3.6791,-3.6778,-3.6811,-3.6804,-3.6868,-3.6856,-3.6865,-3.6862,-3.691,-3.6906,-3.7067,-3.7088,-3.6938,-3.6939,-3.6941,0,-3.6673,-3.671,-3.6718,-3.6738,-3.6745,-3.6776,-3.6794,-3.6775,-3.6794,-3.681,-3.6838,-3.6867,-3.689,-3.6942,-3.6938,-3.6964,-3.6952,-3.7007,-3.6956,-3.6962,-3.6954,-3.6952,-3.6956,-3.7018,-3.7019,-3.7021,-3.7022,0,-3.6803,-3.6796,-3.6822,-3.6847,-3.6869,-3.6888,-3.6903,-3.6921,-3.6903,-3.6926,-3.6958,-3.6976,-3.701,-3.7039,-3.7062,-3.7066,-3.7041,-3.7038,-3.705,-3.7058,-3.7062,-3.7061,-3.6893,-3.7034,-3.7033,-3.7032,-3.7032,-3.7031,-3.6899,-3.693,-3.6941,-3.6971,-3.6981,-3.6997,-3.7025,-3.7023,-3.705,-3.7077,-3.7064,-3.7102,-3.7112,-3.714,-3.7147,-3.7176,-3.7155,-3.7173,-3.7177,-3.7182,-3.7189,-3.7057,-3.718,-3.718,-3.7179,-3.7179,-3.7179,0,-3.7027,-3.7032,-3.7061,-3.7084,-3.7108,-3.7083,-3.7099,-3.712,-3.7154,-3.7166,-3.7189,-3.7226,-3.7254,-3.7253,-3.7279,-3.7302,-3.7291,-3.731,-3.7308,-3.731,-3.7206,-3.7193,-3.7318,-3.7318,-3.7318,-3.7318,-3.7318,-3.7318,-3.7097,-3.7149,-3.7144,-3.72,-3.7204,-3.7242,-3.7253,-3.7267,-3.7277,-3.732,-3.7343,-3.7342,-3.7349,-3.7375,-3.74,-3.7398,-3.7409,-3.7432,-3.7427,-3.7331,-3.7317,-3.7304,-3.7291,-3.7435,-3.7435,-3.7528,-3.7529,-3.7529]}]]